Location: Cahas Mountain Overlook
(37.0833°N, 80.1000°W)
Time: 18:11:45
(UTC-04:00)

SR - Pass Details

Date: 12 February 2026
Orbit: 572 x 849 km, 66.7° (Epoch: 12 March)

Event Time Altitude Azimuth Distance (km) Brightness Sun altitude
Rises 06:31:40 0° 228° (SW) 2,762 ? -8.7°
Reaches altitude 10° 06:34:01 10° 238° (WSW) 1,870 ? -8.3°
Maximum altitude 06:37:49 34° 304° (NW) 966 ? -7.5°
Drops below altitude 10° 06:41:45 10° 10° (N) 1,935 ? -6.8°
Sets 06:44:14 0° 20° (NNE) 2,874 ? -6.3°
